TimeCET,TemperatureF,Dew PointF,Humidity,Sea Level PressureIn,VisibilityMPH,Wind Direction,Wind SpeedMPH,Gust SpeedMPH,PrecipitationIn,Events,Conditions,WindDirDegrees,DateUTC
12:20 AM,59.0,46.4,63,29.47,6.2,SSW,16.1,27.6,N/A,,Scattered Clouds,210,2012-11-28 23:20:00
12:50 AM,59.0,44.6,59,29.47,6.2,SSW,13.8,-,N/A,,Scattered Clouds,210,2012-11-28 23:50:00
1:20 AM,53.6,46.4,77,29.47,5.0,SSW,19.6,36.8,N/A,Rain-Thunderstorm,Light Thunderstorms and Rain,210,2012-11-29 00:20:00
1:50 AM,53.6,46.4,77,29.44,3.1,SW,19.6,31.1,N/A,Rain-Thunderstorm,Light Thunderstorms and Rain,230,2012-11-29 00:50:00
2:20 AM,55.4,50.0,82,29.44,5.0,SSW,9.2,-,N/A,Thunderstorm,Mostly Cloudy,200,2012-11-29 01:20:00
2:50 AM,57.2,46.4,67,29.44,5.0,SW,11.5,-,N/A,Thunderstorm,Mostly Cloudy,220,2012-11-29 01:50:00
3:20 AM,55.4,46.4,72,29.44,5.0,SW,19.6,33.4,N/A,Thunderstorm,Thunderstorm,230,2012-11-29 02:20:00
3:50 AM,57.2,46.4,67,29.44,5.0,SW,12.7,-,N/A,Thunderstorm,Mostly Cloudy,220,2012-11-29 02:50:00
5:20 AM,55.4,46.4,72,29.44,3.1,SW,18.4,31.1,N/A,Rain,Rain,220,2012-11-29 04:20:00
5:50 AM,55.4,46.4,72,29.42,5.0,South,10.4,-,N/A,,Mostly Cloudy,190,2012-11-29 04:50:00
6:20 AM,53.6,46.4,77,29.42,5.0,SW,17.3,29.9,N/A,Rain,Light Rain,220,2012-11-29 05:20:00
6:50 AM,53.6,48.2,82,29.42,5.0,SSE,9.2,24.2,N/A,Rain,Light Rain,160,2012-11-29 05:50:00
7:20 AM,57.2,48.2,72,29.42,6.2,South,15.0,-,N/A,Rain,Light Rain,190,2012-11-29 06:20:00
7:50 AM,57.2,48.2,72,29.42,6.2,SSW,12.7,-,N/A,Thunderstorm,Mostly Cloudy,210,2012-11-29 06:50:00
8:20 AM,-9999,-9999,N/A,-9999,6.2,WSW,8.1,-,N/A,Rain-Thunderstorm,Rain,250,2012-11-29 07:20:00
8:50 AM,59.0,48.2,67,29.42,6.2,SSW,15.0,-,N/A,,Mostly Cloudy,210,2012-11-29 07:50:00
9:20 AM,59.0,48.2,67,29.42,6.2,SSW,15.0,-,N/A,,Mostly Cloudy,210,2012-11-29 08:20:00
9:50 AM,59.0,48.2,67,29.42,6.2,SSW,12.7,25.3,N/A,,Mostly Cloudy,210,2012-11-29 08:50:00
10:20 AM,59.0,48.2,67,29.42,6.2,SSW,18.4,33.4,N/A,,Mostly Cloudy,200,2012-11-29 09:20:00
10:50 AM,53.6,51.8,94,29.42,1.6,SW,23.0,38.0,N/A,Rain-Thunderstorm,Heavy Thunderstorms and Rain,230,2012-11-29 09:50:00
11:20 AM,59.0,51.8,77,29.42,6.2,SSW,17.3,28.8,N/A,,Mostly Cloudy,200,2012-11-29 10:20:00
11:50 AM,60.8,51.8,72,29.39,6.2,SSW,16.1,35.7,N/A,,Mostly Cloudy,210,2012-11-29 10:50:00
12:20 PM,59.0,51.8,77,29.39,6.2,SSW,15.0,-,N/A,,Mostly Cloudy,210,2012-11-29 11:20:00
12:50 PM,60.8,48.2,63,29.39,6.2,SW,19.6,34.5,N/A,,Mostly Cloudy,220,2012-11-29 11:50:00
1:20 PM,60.8,48.2,63,29.39,6.2,SW,17.3,34.5,N/A,,Mostly Cloudy,220,2012-11-29 12:20:00
1:50 PM,60.8,48.2,63,29.39,6.2,SW,17.3,-,N/A,,Mostly Cloudy,230,2012-11-29 12:50:00
2:20 PM,62.6,48.2,59,29.39,6.2,SW,17.3,28.8,N/A,,Mostly Cloudy,220,2012-11-29 13:20:00
2:50 PM,60.8,48.2,63,29.39,6.2,SW,15.0,26.5,N/A,,Mostly Cloudy,220,2012-11-29 13:50:00
3:20 PM,60.8,46.4,59,29.39,6.2,SSW,18.4,33.4,N/A,,Mostly Cloudy,210,2012-11-29 14:20:00
3:50 PM,60.8,48.2,63,29.39,6.2,SSW,15.0,31.1,N/A,,Mostly Cloudy,210,2012-11-29 14:50:00
4:20 PM,60.8,48.2,63,29.39,6.2,SSW,16.1,29.9,N/A,,Mostly Cloudy,210,2012-11-29 15:20:00
4:50 PM,59.0,50.0,72,29.39,6.2,SW,18.4,34.5,N/A,Rain,Light Rain,220,2012-11-29 15:50:00
5:20 PM,60.8,48.2,63,29.39,6.2,SW,18.4,33.4,N/A,,Mostly Cloudy,220,2012-11-29 16:20:00
5:50 PM,60.8,48.2,63,29.39,-9999.0,North,-9999.0,-,N/A,,Mostly Cloudy,0,2012-11-29 16:50:00
6:20 PM,60.8,48.2,63,29.39,6.2,SW,19.6,33.4,N/A,Rain,Light Rain,220,2012-11-29 17:20:00
6:50 PM,59.0,50.0,72,29.39,6.2,SW,13.8,25.3,N/A,,Mostly Cloudy,220,2012-11-29 17:50:00
7:20 PM,59.0,50.0,72,29.39,5.0,SW,19.6,-,N/A,Rain,Rain,230,2012-11-29 18:20:00
7:50 PM,57.2,50.0,77,29.39,5.0,SW,16.1,-,N/A,Rain,Rain,230,2012-11-29 18:50:00
8:20 PM,57.2,50.0,77,29.42,5.0,WSW,23.0,-,N/A,Rain,Rain,240,2012-11-29 19:20:00
8:50 PM,55.4,50.0,82,29.42,5.0,SW,17.3,31.1,N/A,Rain,Rain,230,2012-11-29 19:50:00
9:20 PM,57.2,48.2,72,29.42,5.0,SW,13.8,-,N/A,Rain,Rain,220,2012-11-29 20:20:00
9:50 PM,57.2,48.2,72,29.42,6.2,SW,13.8,26.5,N/A,,Scattered Clouds,220,2012-11-29 20:50:00
10:20 PM,57.2,50.0,77,29.42,6.2,SW,8.1,-,N/A,,Scattered Clouds,220,2012-11-29 21:20:00
10:50 PM,59.0,50.0,72,29.44,6.2,SW,15.0,-,N/A,,Mostly Cloudy,220,2012-11-29 21:50:00
11:20 PM,57.2,46.4,67,29.44,6.2,SW,10.4,-,N/A,Rain,Light Rain,220,2012-11-29 22:20:00
11:50 PM,57.2,50.0,77,29.44,6.2,WSW,13.8,-,N/A,Rain,Light Rain,250,2012-11-29 22:50:00